Flag for Czech Republic Weather past 2 weeks in Brno, Czech Republic

Now
92 °F

Scattered clouds.


Feels Like: 94 °F
Forecast: 61 / 78 °F
Wind: 3 mph from South

Location: Brno / Turany

Current Time: Jul 7, 2015 at 8:31:39 PM

Latest Report: Jul 7, 2015 at 7:00 PM


Visibility: 16 mi

Pressure: 29.79 "Hg

Humidity: 38%

Dew point: 63 °F

Location of BrnoLocation

Historic Weather in Brno — Graph

°F

Brno temperature yesterday

Maximum temperature yesterday: 92 °F (at 2:00 PM)
Minimum temperature yesterday: 69 °F (at 6:00 AM)
Average temperature yesterday: 81 °F

Past Weeks' High & Low Weather Summary

 TemperatureHumidityPressure
High95 °F (Jul 5, 5:00 PM)98% (Jun 23, 6:00 AM)30.33 "Hg (Jun 23, 6:00 AM)
Low49 °F (Jun 24, 5:00 AM)24% (Jul 5, 4:00 PM)29.74 "Hg (Jun 23, 4:00 AM)
Average70 °F58%30.10 "Hg
* Reported Jun 22 8:00 PM — Jul 7 7:00 PM, Brno, Weather by CustomWeather, © 2015

Note: Actual official high and low records may vary slightly from our data, if they occured in-between our weather recording intervals... More about our weather records

Advertising

Brno weather history for previous 24 hours

 ConditionsComfort  
Time TempWeatherWind HumidityBarometerVisibility
7:00 PM
Tue, Jul 7
92 °FScattered clouds.3 mph38%29.79 "Hg16 mi
6:00 PM94 °FPassing clouds.3 mph35%29.81 "Hg16 mi
5:00 PM94 °FScattered clouds.5 mph33%29.84 "Hg16 mi
4:00 PM93 °FPassing clouds.2 mph33%29.85 "Hg16 mi
3:00 PM92 °FPassing clouds.3 mph35%29.88 "Hg16 mi
2:00 PM91 °FPassing clouds.5 mph29%29.91 "Hg16 mi
1:00 PM89 °FPassing clouds.2 mph38%29.93 "Hg16 mi
12:00 PM87 °FPassing clouds.3 mph44%29.96 "Hg16 mi
11:00 AM84 °FPassing clouds.3 mph49%29.98 "Hg16 mi
10:00 AM80 °FPassing clouds.3 mph53%30.01 "Hg16 mi
9:00 AM77 °FSunny.6 mph55%30.03 "Hg16 mi
8:00 AM74 °FSunny.6 mph57%30.05 "Hg16 mi
7:00 AM71 °FSunny.3 mph63%30.05 "Hg12 mi
6:00 AM67 °FPassing clouds.2 mph78%30.06 "Hg12 mi
4:00 AM68 °FClear.2 mph76%30.06 "Hg16 mi
3:00 AM69 °FClear.1 mph73%30.07 "Hg16 mi
2:00 AM69 °FPassing clouds.1 mph72%30.08 "Hg16 mi
1:00 AM73 °FPassing clouds.1 mph64%30.08 "Hg15 mi
12:00 AM74 °FPassing clouds.1 mph64%30.07 "Hg16 mi
10:00 PM
Mon, Jul 6
75 °FClear.5 mph62%30.05 "Hg16 mi
9:00 PM81 °FClear.3 mph53%30.03 "Hg16 mi
8:00 PM84 °FPassing clouds.3 mph48%30.01 "Hg19 mi
Weather by CustomWeather, © 2015

See weather overviewHow to use our weather pages